Minneapolis Crystal, MN

4:45 PM CDT on August 23, 2017 (GMT -0500)
Crystal

Weather History for KMIC - February, 2013

Change the Weather History Date:

Sunday, February 3, 2013

  Actual Average Record
Temperature  
Mean Temperature 8 °F -  
Max Temperature 12 °F 25 °F 46 °F (2005)
Min Temperature 3 °F 10 °F -13 °F (2007)
Degree Days  
Heating Degree Days 58    
Moisture  
Dew Point 3 °F    
Average Humidity 73    
Maximum Humidity 85    
Minimum Humidity 61    
Precipitation  
Precipitation 0.01 in - - ()
Sea Level Pressure  
Sea Level Pressure 30.03 in    
Wind  
Wind Speed 7 mph (NW)    
Max Wind Speed 14 mph    
Max Gust Speed -    
Visibility 7 miles    
Events Snow    
Averages and records for this station are not official NWS values.
T = Trace of Precipitation, MM = Missing Value Source: NWS Daily Summary

Daily Weather History Graph

Daily Weather History Graph

Search for Another Location

Airport or City:

Trip Planner

Search our weather history database for the weather conditions in past years. The results will help you decide how hot, cold, wet, or windy it might be!

Date:

Astronomy

Feb. 03, 2013 Rise Set
Actual Time 7:30 AM CST 5:24 PM CST
Civil Twilight 6:59 AM CST 5:55 PM CST
Nautical Twilight 6:24 AM CST 6:30 PM CST
Astronomical Twilight 5:50 AM CST 7:05 PM CST
Moon 12:59 AM CST (2/3) 11:00 AM CST (2/3)
Length of Visible Light 10h 56m
Length of Day
9h 53m
Waning Gibbous, 48% of the Moon is Illuminated
Feb 3
Waning Gibbous
Feb 10
New
Feb 17
First Quarter
Feb 25
Full
Mar 4
Last Quarter

Hourly Weather History & Observations

Time (CST) Temp. Windchill Dew Point Humidity Pressure Visibility Wind Dir Wind Speed Gust Speed Precip Events Conditions
12:53 AM 9.0 °F -3.2 °F 3.9 °F 80% 30.04 in 4.0 mi WNW 8.1 mph - 0.00 in Snow Light Snow
1:09 AM 8.6 °F -6.3 °F 3.2 °F 79% 29.97 in 5.0 mi WNW 11.5 mph - 0.00 in Snow Light Snow
1:53 AM 9.0 °F -5.1 °F 3.0 °F 77% 30.04 in 8.0 mi WNW 10.4 mph - 0.00 in   Overcast
2:53 AM 9.0 °F -7.3 °F 3.0 °F 77% 30.06 in 10.0 mi WNW 13.8 mph - 0.00 in   Overcast
3:53 AM 9.0 °F -3.2 °F 3.0 °F 77% 30.05 in 10.0 mi WNW 8.1 mph - N/A   Overcast
4:53 AM 7.0 °F -7.5 °F 1.0 °F 77% 30.08 in 10.0 mi WNW 10.4 mph - N/A   Clear
6:53 AM 3.0 °F -13.3 °F -2.0 °F 80% 30.10 in 10.0 mi WNW 11.5 mph - N/A   Clear
7:53 AM 3.0 °F -12.5 °F -2.9 °F 76% 30.10 in 10.0 mi WNW 10.4 mph - N/A   Mostly Cloudy
8:53 AM 3.9 °F -9.4 °F -2.9 °F 73% 30.12 in 10.0 mi NW 8.1 mph - N/A   Partly Cloudy
9:53 AM 6.1 °F -7.8 °F -2.0 °F 69% 30.12 in 10.0 mi NW 9.2 mph - N/A   Clear
10:53 AM 8.1 °F -4.3 °F -0.9 °F 67% 30.13 in 10.0 mi WNW 8.1 mph - N/A   Mostly Cloudy
11:53 AM 10.0 °F -2.9 °F -0.9 °F 61% 30.11 in 10.0 mi NW 9.2 mph - N/A   Overcast
12:53 PM 10.9 °F -0.8 °F 1.0 °F 64% 30.09 in 10.0 mi West 8.1 mph - N/A   Overcast
1:53 PM 12.0 °F 2.7 °F 1.0 °F 61% 30.06 in 10.0 mi West 5.8 mph - 0.00 in   Overcast
2:08 PM 12.2 °F 4.3 °F 1.4 °F 62% 30.00 in 1.8 mi West 4.6 mph - 0.00 in Snow Light Snow
2:13 PM 12.2 °F - 1.4 °F 62% 30.00 in 3.0 mi Calm Calm - 0.00 in Snow Light Snow
2:44 PM 10.4 °F 0.8 °F 3.2 °F 73% 29.99 in 4.0 mi SW 5.8 mph - 0.00 in Snow Light Snow
2:53 PM 12.0 °F 2.7 °F 3.0 °F 67% 30.04 in 7.0 mi WSW 5.8 mph - 0.00 in Snow Light Snow
3:53 PM 12.0 °F 4.1 °F 3.9 °F 70% 30.04 in 10.0 mi West 4.6 mph - 0.00 in   Overcast
4:36 PM 12.2 °F - 3.2 °F 67% 29.97 in 10.0 mi Calm Calm - N/A   Overcast
4:53 PM 12.0 °F - 3.9 °F 70% 30.03 in 10.0 mi Calm Calm - N/A   Overcast
5:16 PM 12.2 °F - 3.2 °F 67% 29.96 in 9.0 mi Calm Calm - 0.00 in Snow Light Snow
5:53 PM 12.0 °F 5.9 °F 3.0 °F 67% 30.04 in 10.0 mi West 3.5 mph - 0.00 in   Overcast
6:53 PM 10.9 °F - 5.0 °F 77% 30.04 in 3.0 mi Calm Calm - 0.00 in Snow Light Snow
7:53 PM 12.0 °F - 5.0 °F 73% 30.03 in 6.0 mi Calm Calm - 0.00 in Snow Light Snow
8:53 PM 12.0 °F 5.9 °F 5.0 °F 73% 30.03 in 5.0 mi NNE 3.5 mph - 0.00 in Snow Light Snow
9:44 PM 12.2 °F 2.9 °F 6.8 °F 79% 29.96 in 1.8 mi NE 5.8 mph - 0.00 in Snow Light Snow
9:53 PM 10.9 °F 1.4 °F 6.1 °F 81% 30.03 in 1.2 mi NE 5.8 mph - 0.00 in Snow Light Snow
10:53 PM 10.9 °F 4.7 °F 6.1 °F 81% 30.02 in 2.5 mi ENE 3.5 mph - 0.01 in Snow Light Snow
10:57 PM 10.4 °F 2.2 °F 6.8 °F 85% 29.96 in 3.0 mi NE 4.6 mph - 0.00 in Snow Light Snow
11:17 PM 10.4 °F 0.8 °F 6.8 °F 85% 29.96 in 1.8 mi NE 5.8 mph - 0.00 in Snow Light Snow
11:25 PM 10.4 °F 2.2 °F 6.8 °F 85% 29.97 in 1.0 mi NNE 4.6 mph - 0.00 in Snow Light Snow
11:53 PM 10.0 °F 1.8 °F 5.0 °F 80% 30.01 in 2.0 mi NE 4.6 mph - 0.00 in Snow Light Snow